This is the latest recevied weather packets stored in our database for station/object N7SHZ. If no packets are shown the sender has not sent any weather packets the latest 1 day(s).
| Time | Temp. | Humidity | Pressure | Rain* | Wind** | Luminosity | Snow |
|---|---|---|---|---|---|---|---|
| 1778006579 | 0° C | 99% | 1027.8 hPa | - | 3.13 m/s, 114° | 689 W/m² | - |
| 1778006276 | 0° C | 99% | 1027.9 hPa | - | 2.68 m/s, 118° | 767 W/m² | - |
| 1778005973 | 0° C | 99% | 1027.9 hPa | - | 4.02 m/s, 107° | 738 W/m² | - |
| 1778005670 | 0° C | 99% | 1027.7 hPa | - | 4.02 m/s, 105° | 616 W/m² | - |
| 1778005366 | 0° C | 99% | 1027.8 hPa | - | 2.24 m/s, 115° | 526 W/m² | - |
| 1778005063 | 0° C | 99% | 1027.9 hPa | - | 3.58 m/s, 117° | 735 W/m² | - |
| 1778004761 | -0.56° C | 99% | 1027.8 hPa | - | 4.02 m/s, 123° | 503 W/m² | - |
| 1778004457 | -0.56° C | 99% | 1027.9 hPa | - | 2.68 m/s, 105° | 319 W/m² | - |
| 1778004153 | -0.56° C | 99% | 1027.8 hPa | - | 3.58 m/s, 109° | 300 W/m² | - |
| 1778003850 | -0.56° C | 99% | 1027.9 hPa | - | 4.02 m/s, 113° | 355 W/m² | - |
| 1778003547 | -0.56° C | 99% | 1027.8 hPa | - | 4.02 m/s, 120° | 367 W/m² | - |
| 1778003243 | -0.56° C | 99% | 1027.7 hPa | - | 4.47 m/s, 120° | 393 W/m² | - |
| 1778002940 | -1.11° C | 99% | 1027.9 hPa | - | 4.47 m/s, 110° | 324 W/m² | - |
| 1778002636 | -1.11° C | 99% | 1027.8 hPa | - | 3.13 m/s, 120° | 311 W/m² | - |
| 1778002333 | -1.11° C | 99% | 1027.9 hPa | - | 3.13 m/s, 124° | 339 W/m² | - |
| 1778002030 | -1.67° C | 99% | 1027.7 hPa | - | 3.13 m/s, 137° | 298 W/m² | - |
| 1778001727 | -2.22° C | 99% | 1027.9 hPa | - | 3.58 m/s, 127° | 186 W/m² | - |
| 1778001427 | -2.22° C | 99% | 1028.3 hPa | - | 5.81 m/s, 108° | 155 W/m² | - |
| 1778001124 | -1.67° C | 99% | 1028.1 hPa | - | 4.92 m/s, 94° | 138 W/m² | - |
| 1778000821 | -1.67° C | 99% | 1028.1 hPa | - | 5.81 m/s, 96° | 141 W/m² | - |
| 1778000518 | -1.67° C | 99% | 1028.1 hPa | - | 5.81 m/s, 96° | 150 W/m² | - |
| 1778000228 | -1.67° C | 99% | 1027.8 hPa | - | 6.26 m/s, 106° | 144 W/m² | - |
| 1777999914 | -2.22° C | 99% | 1027.7 hPa | - | 7.15 m/s, 99° | 136 W/m² | - |
| 1777999609 | -2.22° C | 99% | 1027.8 hPa | - | 5.36 m/s, 105° | 108 W/m² | - |
| 1777999307 | -2.22° C | 99% | 1027.8 hPa | - | 5.81 m/s, 98° | 93 W/m² | - |
* Rain since midnight (hover to see other rain measurements)
** Current wind speed in m/s (hover to see current wind gust speed)